Main page
METAR-TAF:

METAR-TAF

Airports :

RAF Holbeach

Holbeach, England

latitude: 52-52N, longitude: 000-09E, elevation: 3 m

Current weather observation

The report was made 56 minutes ago, at 12:50 UTC
Wind 10 kt from the Southwest
Temperature 9°C
Humidity 81%
Pressure 998 hPa
Visibility 10 km or more
Few clouds at a height of 2500 ft

METAR: EGYH 131250Z 23010KT 9999 FEW025 09/06 Q0998 RMK BLU

Time: 13:46 (13:46 UTC)


TAF: missing

Weather observations and forecasts of more than 4000 airports (METAR and TAF reports).

The available stations are represented by yellow and red dots on the map.

Hover mouse over dot to see the name of the station.

Then click to see weather observations and forecasts.

To change the map : click on the green buttons with a black cross to zoom in, on the green button with a dash to zoom out, or on the green arrows for adjacent maps.


METAR-TAF: